Location: Consuma
(43.7833°N, 11.5833°E)
Time: 15:07:53
(UTC+00:00)

ALOS - Pass Details

Date: 17 February 2020
Orbit: 684 x 685 km, 97.8° (Epoch: 08 April)

Event Time Altitude Azimuth Distance (km) Brightness Sun altitude
Rises 03:36:08 0° 24° (NNE) 3,059 6.1 -28.4°
Reaches altitude 10° 03:38:43 10° 37° (NE) 2,138 5.4 -28.0°
Maximum altitude 03:42:38 26° 94° (E) 1,337 4.4 -27.3°
Drops below altitude 10° 03:46:31 10° 151° (SSE) 2,123 5.0 -26.6°
Sets 03:49:04 0° 164° (SSE) 3,033 5.7 -26.1°
